{"data":{"norad_id":55454,"intl_designator":"2023-015F","name":"STARLINK-5636","alt_names":[],"object_type":"PAYLOAD","status":"ACTIVE","operator":null,"country":"US","launch_date":"2023-02-02","launch_site_code":"AFETR","launch_vehicle":null,"mission":null,"orbit_class":"UNKNOWN","rcs_meters":null,"size_class":null,"mass_kg":null,"dimensions":null,"purposes":["comms"],"wikipedia_slug":null,"has_3d_model":false,"image_url":null,"decayed_at":null,"tle_current":{"epoch":"2026-09-20T10:01:20.032608Z","epoch_age_seconds":107535,"freshness":"FRESH","line1":"1 55454U 23015F   26263.41759297 -.00000453  00000+0 -69435-5 0  9992","line2":"2 55454  43.0022 308.9565 0001123 279.5038  80.5686 15.27572747200500","mean_motion":15.27572747,"eccentricity":0.0001123,"inclination_deg":43.0022,"raan_deg":308.9565,"arg_perigee_deg":279.5038,"mean_anomaly_deg":80.5686,"bstar":-6.9435e-6,"rev_number":20050,"period_min":94.267196297395,"perigee_km":482.3003005793,"apogee_km":483.84132785438,"semimajor_km":6861.2078142168,"source":"CELESTRAK","updated_at":"2026-09-21T09:00:33.226515Z"}}}